View from above orbital plane
|
View from above satellite
|
Ground track
|
The orbit data is extracted from the following two-line orbital elements,
1 41334U 16010A 21053.22038025 0.00000000 00000-0 00000-0 0 09
2 41334 122.9978 302.5955 0002815 115.4917 244.5083 13.41419525 09
Epoch (UTC): | 22 February 2021 05:17:20 |
Eccentricity: | 0.0002815 |
inclination: | 122.9978° |
perigee height: | 1102 km |
apogee height: | 1106 km |
right ascension of ascending node: | 302.5955° |
argument of perigee: | 115.4917° |
revolutions per day: | 13.41419525 |
mean anomaly at epoch: | 244.5083° |
orbit number at epoch: | 0 |
The dashed part of the orbit path shows where the satellite is in the earth's shadow,
|
|